Location: *
(51.8167°N, 12.5000°E)
Time: 08:23:25
(UTC+00:00)

CZ-2C R/B - Pass Details

Date: 16 September 2019
Orbit: 639 x 705 km, 98.4° (Epoch: 20 October)

Event Time Altitude Azimuth Distance (km) Brightness Sun altitude
Rises 18:50:11 0° 15° (NNE) 2,999 7.2 -13.8°
Reaches altitude 10° 18:52:26 10° 15° (NNE) 2,074 6.3 -14.2°
Maximum altitude 18:56:58 88° 108° (ESE) 655 3.6 -14.8°
Drops below altitude 10° 19:01:24 10° 196° (SSW) 2,033 6.1 -15.4°
Sets 19:03:34 0° 196° (SSW) 2,935 6.9 -15.7°
